Location: New York
(40.7127°N, 74.0060°W)
Time: 08:03:56
(UTC-04:00)

VELOX 1 - Visible Passes

Search period start: 23 June 2025 00:00
Search period end: 03 July 2025 00:00
Orbit: 582 x 594 km, 98.3° (Epoch: 22 June)

Date Brightness Start Highest point End Pass type
(mag) Time Alt. Az. Time Alt. Az. Time Alt. Az.
23 Jun ? 21:50:03 10° NE 21:52:49 17° E 21:53:39 16° ESE visible
23 Jun ? 23:24:29 10° N 23:28:22 38° WNW 23:30:09 25° WSW visible
24 Jun ? 21:57:02 10° NE 22:00:11 20° E 22:01:02 19° ESE visible
24 Jun ? 23:31:55 10° N 23:35:37 32° WNW 23:37:31 22° WSW visible
25 Jun ? 22:04:06 10° NE 22:07:32 24° E 22:08:24 22° ESE visible
25 Jun ? 23:39:21 10° N 23:42:53 27° WNW 23:44:54 19° WSW visible
26 Jun ? 22:11:13 10° NE 22:14:52 29° E 22:15:47 26° ESE visible
26 Jun ? 23:46:49 10° NNW 23:50:08 23° WNW 23:52:16 16° WSW visible
27 Jun ? 22:18:21 10° NNE 22:22:12 34° E 22:23:08 31° SE visible
27 Jun ? 23:54:21 10° NNW 23:57:22 20° WNW 23:59:38 13° WSW visible
28 Jun ? 22:25:32 10° NNE 22:29:31 41° E 22:30:29 35° SE visible
29 Jun ? 00:01:54 10° NNW 00:04:35 17° WNW 00:06:58 11° WSW visible
29 Jun ? 22:32:44 10° NNE 22:36:49 50° E 22:37:49 40° SE visible
30 Jun ? 00:09:33 10° NNW 00:11:47 14° WNW 00:14:01 10° W visible
30 Jun ? 22:39:58 10° NNE 22:44:06 61° ESE 22:45:10 45° SSE visible
01 Jul ? 00:17:22 10° NW 00:18:59 12° WNW 00:20:37 10° W visible
01 Jul ? 22:47:11 10° NNE 22:51:23 75° ESE 22:52:30 47° S visible
02 Jul ? 00:25:48 10° NW 00:26:10 10° WNW 00:26:32 10° WNW visible
02 Jul ? 22:54:27 10° NNE 22:58:40 90° SE 22:59:49 47° SSW visible
